weather.gov     
National Weather Service

Terminal Aerodrome Forecast
NWS Homepage
This page is being discontinued on March 12, 2014.
The same data is available at this site. Please update your bookmarks.
Thank you, and we apologize for the inconvenience.
Please send an email to SR-SRH.Webmaster@noaa.gov with any concerns.


Current Version
Previous Version:    01  02  03  04  05  06  07  08  09  10  11  12  13  14  15  16  17  18  19  20  21  22  23  
[Printable]
457
FTUS45 KREV 202300
TAFCXP
TAF
KCXP 202328Z 2100/2124 25013G24KT P6SM SCT060 SCT100
     FM210400 29011G18KT P6SM VCSH SCT040 BKN060
     FM210700 32007KT P6SM SCT060
     FM211400 VRB03KT P6SM SCT100 BKN180
     FM212000 08008KT P6SM FEW100 BKN180=


U.S. Dept. of Commerce
NOAA National Weather Service
1325 East West Highway
Silver Spring, MD 20910
E-mail: w-nws.webmaster@noaa.gov
Page last modified: May 16, 2007
NATIONAL WEATHER SERVICE: for Safety, for Work, for Fun - FOR LIFE